Theta_e
302 301 301 302 302 302 303 304 305 305 306 306 307 307 308 307 307 307 311 310 313 318 316 316 320 320 321 321 326 323 325 326 326 325 323 323 322 322 328 327 329 326 325 323 327 330 332 326 329 338 334 331 330 329
302 301 301 301 302 302 303 304 305 305 306 307 307 307 308 307 307 307 308 310 311 314 316 314 317 316 316 318 320 320 325 328 326 328 327 327 330 327 329 328 323 330 327 328 327 330 326 324 327 325 327 327 326 326
302 301 301 301 301 302 302 302 303 303 304 306 308 308 307 307 308 308 308 310 311 315 317 316 318 316 315 317 317 321 322 323 326 322 326 324 330 323 329 327 327 326 324 330 330 327 326 325 324 325 324 324 323 323
302 301 301 301 301 301 302 302 302 304 307 308 308 308 309 308 308 309 310 310 310 313 320 319 317 316 316 316 315 317 320 316 318 318 322 323 324 319 324 324 325 324 325 328 327 325 323 323 323 322 321 321 321 321
302 301 301 301 301 302 302 302 303 307 308 308 308 309 311 310 309 309 312 310 310 314 317 315 313 316 317 316 317 316 317 320 321 323 323 324 320 322 319 320 324 323 328 330 331 326 327 325 321 320 321 321 321 319
302 302 301 301 301 302 302 302 303 305 307 307 309 310 313 312 310 312 317 313 312 311 316 316 315 319 318 316 317 318 318 319 321 323 324 321 318 321 325 326 323 321 321 322 326 324 324 322 321 319 320 320 320 319
302 302 301 301 301 302 302 302 303 304 305 305 309 312 313 312 309 310 317 312 311 311 318 319 318 318 316 318 318 320 317 319 320 322 323 321 321 319 322 324 324 322 321 321 322 322 322 321 321 319 319 319 318 318
302 302 302 301 301 302 302 302 303 304 305 305 309 311 314 311 313 316 314 313 312 312 315 320 319 321 316 321 322 317 322 320 320 321 319 321 319 319 324 323 323 322 321 322 320 320 321 319 319 319 318 319 318 317
303 302 302 301 301 301 301 302 304 305 306 306 310 313 312 314 316 315 311 313 313 313 317 319 322 325 318 319 319 320 319 325 318 323 321 320 322 324 324 322 323 323 323 322 319 319 319 319 319 320 319 318 317 317
303 302 302 301 301 301 301 304 305 305 306 308 309 312 317 313 310 313 314 315 317 316 315 317 316 322 319 318 321 322 320 324 324 323 319 323 323 322 318 317 322 322 322 320 320 320 320 319 320 319 318 317 317 317
303 303 302 301 301 301 301 305 305 305 306 307 307 311 309 311 314 316 319 321 317 319 318 317 317 320 319 322 324 323 326 321 325 322 324 323 325 321 319 319 320 320 320 320 319 319 318 318 318 318 318 317 317 317
303 302 301 301 301 301 302 306 305 304 304 305 305 306 307 313 315 318 319 318 319 320 319 320 319 318 320 319 325 324 326 323 324 320 323 325 321 321 318 319 320 319 318 317 317 318 317 317 317 317 317 317 316 316
304 303 301 300 301 304 306 306 305 304 305 307 308 311 314 315 315 319 321 321 321 322 322 322 323 323 322 322 322 324 324 324 319 323 323 323 323 318 318 318 318 317 318 317 317 317 317 317 317 317 316 316 317 315
304 303 301 300 301 306 306 306 304 304 306 309 314 313 316 317 318 318 319 320 320 321 323 322 324 325 323 322 322 325 321 322 324 325 323 325 321 321 321 320 319 319 319 319 318 317 317 318 316 315 315 317 316 315
304 303 301 301 305 306 304 303 305 305 308 311 313 312 316 316 315 316 317 318 320 321 322 323 323 323 324 323 322 322 324 325 325 326 321 324 322 322 321 320 321 320 318 318 317 317 318 317 316 317 316 317 316 314
304 303 303 305 304 304 304 305 307 308 308 309 310 313 314 316 318 318 318 319 320 319 319 320 322 323 323 322 322 324 324 325 324 323 320 321 320 320 319 317 316 317 319 318 317 317 318 317 316 317 316 317 317 316
302 301 302 303 301 304 305 307 308 309 310 311 313 313 314 315 316 315 316 317 318 322 324 323 324 322 320 324 323 322 324 323 322 322 320 320 319 318 317 316 316 317 318 317 317 317 318 316 316 316 318 318 318 317
302 302 301 301 303 305 305 307 308 310 313 314 316 315 314 315 316 315 315 315 318 321 322 323 321 323 324 323 324 324 322 321 319 319 318 317 316 315 315 318 317 318 319 318 318 318 316 316 316 317 317 317 316 317
302 302 302 303 305 305 304 308 310 311 312 313 313 313 313 314 314 313 314 313 315 319 320 320 322 322 323 322 322 322 321 320 321 319 318 317 317 317 317 316 317 318 318 318 317 316 315 315 315 315 315 315 316 317
302 302 306 306 305 304 307 308 309 312 313 314 312 314 314 315 314 314 315 317 320 321 322 322 323 323 323 322 319 319 319 318 319 319 320 319 317 318 318 318 318 317 317 316 315 313 315 316 315 314 314 314 315 316
302 306 306 306 305 304 304 306 309 310 312 314 313 314 316 314 315 317 320 317 321 323 324 322 321 320 316 316 316 317 317 317 319 318 319 320 316 316 317 316 317 315 316 314 313 315 312 315 314 314 314 314 312 311
303 305 305 306 307 307 307 307 308 309 310 311 312 313 316 318 319 319 317 321 323 323 321 320 320 319 317 319 317 316 316 315 314 313 311 313 318 318 316 317 316 316 315 315 315 315 315 315 314 314 313 313 312 311
302 305 305 306 308 306 307 306 311 312 315 316 316 320 322 322 321 316 323 321 321 318 317 317 317 316 318 315 315 315 315 316 316 316 315 315 315 315 314 315 315 316 316 316 315 314 314 314 313 313 314 314 313 311
304 306 306 308 309 308 309 311 311 314 316 319 321 323 323 324 322 324 325 322 321 316 316 317 317 317 315 315 317 316 316 315 315 314 314 315 316 315 314 315 315 315 314 315 315 315 315 313 312 313 314 314 313 311
306 305 305 305 306 312 311 313 316 319 320 321 322 323 324 322 325 325 325 323 321 319 317 315 317 318 316 315 314 314 314 315 316 318 316 312 314 313 314 313 313 313 313 314 315 314 313 312 312 313 313 313 311 311
305 307 306 308 310 311 313 316 319 320 321 322 322 322 322 323 323 324 323 322 321 320 317 317 318 318 318 316 317 316 316 313 314 316 317 314 313 315 316 316 315 314 312 313 313 313 311 311 311 312 312 311 310 310
308 309 309 307 309 310 313 315 316 317 320 323 323 324 324 324 324 323 320 318 321 319 317 316 316 316 317 316 315 315 314 313 314 316 315 314 314 314 315 317 315 313 312 310 310 311 310 310 310 311 311 311 311 311
307 307 309 309 310 310 312 315 317 318 320 320 323 324 324 324 324 322 321 320 319 318 317 317 315 315 315 315 315 314 314 313 313 313 313 314 314 314 314 315 312 309 309 309 309 308 310 310 311 311 311 311 311 311
307 308 308 309 310 311 312 314 316 316 316 322 323 322 323 323 321 320 318 319 318 318 318 318 317 316 316 316 315 315 314 313 315 318 318 317 316 316 314 314 313 310 310 310 309 308 310 309 309 310 310 310 310 311
307 307 309 310 311 311 312 314 316 316 315 317 317 317 317 317 317 316 317 318 318 318 319 319 319 317 317 316 316 316 313 312 313 315 317 317 316 316 315 315 314 311 311 311 310 310 309 309 309 310 311 312 312 313
307 308 309 309 309 311 312 312 312 313 313 314 315 316 316 316 315 316 315 317 318 319 319 319 319 317 316 316 316 315 316 314 313 313 313 315 315 314 314 314 313 313 311 310 311 311 311 311 311 312 312 312 313 313
308 309 310 312 313 313 311 311 311 311 312 313 313 314 315 317 317 317 316 316 318 319 319 319 320 320 318 316 315 314 314 314 314 313 313 313 314 314 314 313 313 313 313 311 311 311 312 312 313 313 313 313 313 313
309 309 310 310 311 312 313 313 315 317 316 317 317 317 317 317 318 318 316 315 317 317 318 318 318 319 319 318 316 315 314 315 316 316 315 314 314 314 314 313 313 312 312 312 312 313 313 314 314 314 313 313 313 313
Wind_Speed
17 18 17 17 17 18 19 20 21 22 22 23 23 22 21 20 20 16 2 10 5 2 6 3 3 1 1 1 2 3 2 2 0 2 2 3 3 3 2 1 2 5 5 5 4 7 12 2 4 6 6 13 14 12
16 17 17 18 18 19 19 20 21 22 23 23 22 22 20 19 17 15 3 9 10 4 4 5 12 15 9 6 2 1 2 1 1 2 2 2 2 3 2 3 1 4 2 1 3 2 4 1 1 9 12 15 12 13
15 16 17 18 18 18 19 19 21 23 23 22 22 21 19 17 15 14 7 11 4 2 4 4 2 1 3 11 7 2 1 0 2 2 1 1 3 3 4 4 4 3 2 2 5 3 7 9 10 11 12 13 11 9
15 15 17 18 18 18 18 19 22 23 21 22 23 20 18 15 14 13 5 7 2 1 3 2 5 5 4 4 6 4 1 4 3 1 1 2 2 2 1 1 3 1 8 7 3 5 6 5 9 11 11 10 9 8
14 15 17 18 18 18 18 20 22 21 22 25 24 20 17 15 12 10 1 2 8 3 3 5 15 3 6 6 7 4 4 3 2 2 2 2 2 3 1 1 4 6 6 5 4 13 2 11 9 8 8 8 7 6
14 15 16 17 17 17 18 20 22 22 23 26 25 18 16 13 9 1 1 2 2 6 2 3 5 3 3 3 6 4 3 2 2 2 1 1 0 2 3 3 1 5 5 4 3 14 7 13 10 7 7 6 5 4
14 15 16 17 17 17 18 21 23 24 25 26 23 17 15 10 4 1 1 2 6 4 2 4 4 0 3 0 2 2 1 1 2 2 2 1 3 2 2 3 4 5 6 4 14 15 11 9 5 6 6 6 5 4
14 14 16 16 17 18 19 22 24 26 27 27 21 16 9 4 1 3 3 4 4 1 1 3 3 3 4 2 3 1 2 2 1 1 2 2 3 2 4 3 6 6 10 14 8 5 11 10 9 6 5 4 1 3
12 14 15 15 16 17 20 23 25 27 27 23 17 8 1 1 1 1 11 9 4 2 2 1 3 2 5 1 1 2 1 3 1 3 2 3 3 5 4 7 12 13 12 15 9 12 11 9 7 6 4 3 2 3
13 13 14 15 16 17 20 21 24 29 23 16 5 2 0 1 12 5 1 2 2 1 1 3 1 3 3 2 1 1 1 1 2 2 2 3 4 4 2 2 8 9 11 15 14 9 8 6 6 6 5 2 2 3
13 13 13 14 15 17 19 17 23 28 10 8 7 3 8 9 1 0 1 1 1 2 3 3 3 3 1 2 1 2 1 1 2 2 2 2 3 0 5 1 9 11 10 10 9 9 7 7 6 5 4 2 1 2
13 14 14 14 15 18 16 14 21 20 14 10 10 8 6 3 1 2 0 1 2 2 2 2 1 3 1 1 2 2 2 1 2 2 2 2 1 3 2 6 11 12 13 11 13 11 9 7 6 4 2 1 1 2
14 13 13 13 15 14 9 14 18 20 17 1 2 2 2 1 3 2 2 1 2 2 1 2 1 1 2 2 1 2 1 4 1 2 2 2 1 2 4 8 10 12 14 13 11 9 8 7 5 4 2 3 3 3
13 14 14 14 15 8 13 17 20 18 2 1 2 4 1 2 2 1 2 3 3 3 5 3 2 0 1 1 2 4 0 2 1 2 2 1 4 4 3 4 8 9 10 9 9 8 7 6 5 3 3 4 4 5
13 14 15 12 6 11 17 20 17 4 1 1 1 2 3 3 3 3 2 2 2 3 2 2 1 3 3 0 2 3 3 2 2 2 1 3 7 5 2 3 3 4 5 6 8 6 6 6 5 2 3 4 5 7
12 13 3 5 12 17 19 15 2 1 1 1 2 3 3 3 2 2 2 3 1 1 1 2 1 1 4 2 3 3 2 2 0 1 1 4 6 5 4 4 3 5 4 4 5 4 4 5 5 3 3 5 6 7
9 4 6 12 17 17 10 1 1 2 2 2 3 4 5 5 5 3 1 2 2 2 1 1 2 1 0 2 2 2 1 1 0 1 3 5 5 5 5 4 5 4 4 5 5 6 5 4 4 4 5 4 6 8
5 7 10 14 15 14 2 1 1 2 4 4 3 1 3 4 5 5 2 2 1 1 1 1 0 2 2 2 2 2 3 2 2 2 2 2 4 4 6 6 6 5 5 4 4 3 3 4 6 5 6 7 9 9
9 11 10 9 7 4 3 1 2 2 3 3 4 4 4 4 5 8 6 5 4 1 1 1 3 3 3 3 2 1 2 2 1 1 1 2 4 4 6 5 5 4 4 4 4 4 4 5 5 6 7 7 9 10
9 8 5 5 2 1 2 2 2 3 3 2 3 4 3 4 3 3 3 2 3 2 3 3 4 2 2 1 2 2 1 2 3 2 2 2 3 4 4 4 4 4 4 3 3 3 4 5 5 6 6 8 9 12
3 2 5 3 1 2 2 2 3 2 3 3 3 3 4 2 3 2 2 3 3 3 3 4 3 2 2 3 3 3 3 3 1 1 2 3 4 3 3 3 3 4 4 4 3 3 5 5 4 5 6 8 9 11
2 3 2 2 2 3 3 5 3 3 3 3 3 2 3 2 2 1 2 3 3 3 3 2 1 1 2 3 4 3 1 3 3 3 4 5 3 3 3 4 4 3 4 4 4 5 5 5 5 5 5 6 8 8
2 2 2 2 2 1 4 2 3 3 3 2 2 3 2 2 0 1 2 3 3 2 2 2 1 2 3 4 3 2 2 1 2 2 2 2 2 3 3 5 5 5 5 6 6 5 5 6 6 7 6 6 7 7
2 1 2 2 4 3 1 3 3 3 3 2 2 3 2 1 1 2 3 2 1 2 4 5 5 4 3 3 3 4 5 4 2 3 5 5 4 4 6 7 7 7 6 6 6 6 6 6 6 6 7 6 5 5
1 2 2 4 2 3 3 3 3 3 3 3 2 3 1 0 2 2 2 2 2 4 4 6 5 4 4 3 3 5 6 6 5 3 5 7 5 4 5 6 7 8 6 6 6 5 4 3 3 4 5 3 4 9
3 5 6 4 2 3 4 3 4 4 2 2 4 1 0 1 2 3 2 1 2 4 6 7 7 5 4 6 3 4 4 7 5 4 4 8 9 7 3 2 2 2 7 8 4 4 1 3 4 3 2 3 6 9
3 4 4 3 3 3 4 5 5 3 3 3 2 3 2 3 3 2 2 2 3 6 11 12 12 9 6 5 6 6 6 6 6 4 3 4 6 8 7 4 2 2 5 5 4 3 2 3 4 4 5 7 6 7
4 2 4 2 4 3 4 4 3 3 3 1 2 3 2 2 1 1 2 2 4 3 8 12 14 12 10 9 7 5 6 6 6 5 5 6 8 10 9 6 5 4 3 3 3 3 2 3 3 4 6 8 10 10
4 2 3 5 5 4 5 5 3 2 1 2 1 2 2 2 2 4 10 7 4 5 8 10 13 13 12 11 11 9 8 7 6 6 7 4 3 5 9 11 10 10 8 6 5 5 5 4 4 6 9 12 14 15
4 5 3 4 5 6 5 6 4 3 2 2 3 4 4 4 9 12 11 11 10 11 12 12 11 12 13 12 10 7 6 6 8 9 5 6 6 3 3 6 13 13 13 11 8 7 9 9 9 9 10 11 11 8
2 4 4 5 5 5 8 9 11 8 6 6 7 8 11 7 12 13 13 13 11 10 10 12 12 13 13 12 12 10 9 8 11 12 13 11 9 8 6 6 5 13 16 14 10 9 9 8 8 9 10 12 8 5
5 7 4 4 4 4 4 4 5 6 7 9 10 7 4 4 6 5 12 13 10 10 14 13 12 14 19 18 16 16 18 12 12 13 11 11 11 10 8 6 7 9 14 15 13 11 10 10 11 11 11 11 6 5
6 5 6 6 5 4 5 6 4 3 4 4 6 7 8 5 6 5 10 16 18 18 16 14 15 15 17 21 21 20 18 17 18 16 13 11 10 7 5 5 6 7 8 10 10 9 9 9 9 9 10 8 5 6
Wind_Direction
342 346 347 347 346 347 348 349 348 351 352 354 351 352 355 359 4 8 341 11 15 306 283 259 301 343 4 5 341 16 229 141 154 168 197 169 212 177 231 163 203 211 197 205 205 231 244 81 155 213 109 117 124 124
341 345 348 349 348 348 346 348 346 346 349 349 349 350 350 354 360 4 344 342 336 223 290 275 269 268 257 280 291 352 11 262 6 96 184 146 178 184 192 221 142 221 278 213 257 11 353 332 57 118 122 114 112 112
338 342 345 347 346 348 349 349 352 351 349 350 347 345 346 347 351 353 328 349 339 304 281 282 261 291 261 225 235 296 199 205 162 347 140 112 234 180 194 209 152 153 173 133 182 107 89 102 106 102 106 105 104 103
335 338 342 345 345 346 350 350 350 350 351 349 347 344 340 339 340 337 332 356 30 309 307 303 336 306 265 214 196 220 128 102 91 214 207 215 240 209 215 40 236 93 161 137 93 142 130 118 116 113 104 104 105 103
333 337 340 342 344 346 347 349 350 350 348 346 342 337 334 331 329 332 253 66 33 341 305 292 310 297 291 213 185 157 155 154 179 206 217 224 127 185 121 227 205 189 162 190 188 170 141 154 142 132 119 113 105 105
331 336 337 339 342 343 345 347 347 345 342 344 341 334 331 326 328 358 231 273 288 2 289 299 333 293 329 172 161 130 123 121 166 218 212 189 332 258 214 231 197 195 206 220 145 152 128 134 138 137 118 115 99 83
327 333 336 338 340 341 341 341 341 342 340 339 340 331 329 318 308 214 16 322 308 329 266 294 292 318 322 71 93 129 87 109 273 142 200 203 174 220 220 225 154 186 187 178 134 125 116 148 143 119 109 110 98 62
323 330 334 336 340 342 341 340 339 338 337 334 331 323 320 324 68 97 55 359 346 304 273 285 280 293 3 192 186 11 177 199 96 214 151 200 154 225 240 198 161 143 135 135 107 104 133 123 118 123 119 125 96 335
319 325 330 333 337 340 341 340 339 337 334 330 327 324 297 43 47 87 309 303 279 272 301 278 293 349 353 36 350 152 278 218 83 229 189 189 186 223 233 184 179 168 160 150 112 104 115 128 136 144 159 179 265 313
314 320 326 330 335 339 341 343 344 343 337 337 349 311 224 34 315 310 86 193 184 168 212 259 280 281 328 356 160 244 260 231 224 143 141 223 229 248 350 269 205 161 134 142 127 130 131 147 170 184 199 204 256 317
310 315 320 325 331 337 342 346 348 352 358 7 6 336 306 328 337 271 245 245 146 237 188 245 240 282 26 303 294 348 4 1 243 126 247 204 236 215 346 198 166 152 150 143 131 138 149 148 168 172 175 178 231 291
306 311 317 322 327 331 333 344 349 356 341 312 293 303 305 307 18 287 297 217 224 288 207 244 237 217 288 258 269 113 337 32 271 127 239 246 99 314 263 157 150 144 141 131 134 132 132 141 152 157 168 209 218 252
300 305 311 317 327 336 340 339 341 337 334 37 251 263 346 332 39 322 21 113 310 225 352 319 235 232 203 226 67 61 256 233 186 188 232 296 7 53 122 132 129 136 133 129 130 134 142 147 150 156 174 199 214 231
299 305 309 313 316 317 326 328 330 334 336 332 335 321 284 272 244 244 337 304 297 277 318 320 240 1 2 52 79 312 17 243 218 230 254 156 165 134 109 119 133 137 142 142 148 152 161 161 158 178 207 213 232 234
297 307 308 310 310 321 325 322 324 310 230 280 300 248 239 296 271 272 263 286 259 277 315 234 127 41 6 2 178 246 241 243 232 241 294 161 154 142 125 100 113 151 167 163 161 167 169 166 179 214 228 231 243 254
299 311 283 309 321 323 325 325 345 103 243 247 237 265 243 274 287 297 253 278 260 216 274 285 142 194 204 244 235 222 200 228 61 239 344 148 160 167 183 214 216 208 197 184 171 181 189 189 205 221 231 242 254 262
295 254 306 320 323 331 327 17 129 218 249 233 244 234 262 277 265 265 243 273 298 271 242 236 231 271 252 233 239 216 257 58 200 220 169 186 182 202 203 196 196 202 177 173 192 206 205 203 211 216 246 258 264 274
265 284 308 320 329 339 331 229 231 243 252 234 249 244 214 241 277 289 253 203 281 253 240 260 70 254 258 243 231 211 228 261 246 243 208 207 209 205 196 207 191 184 188 189 202 205 206 208 212 235 264 285 292 287
280 297 309 316 317 320 326 244 221 269 261 276 263 254 255 261 252 262 277 271 240 239 245 223 241 227 240 226 284 250 244 233 262 149 215 215 186 187 175 166 165 173 187 198 210 221 212 216 243 264 282 285 277 288
288 301 305 323 324 290 266 242 241 264 266 316 267 257 247 255 300 269 256 190 175 197 211 220 230 227 237 201 221 262 255 194 183 166 137 129 144 155 157 163 169 180 191 212 233 240 225 245 257 266 271 281 288 291
289 256 307 302 270 218 266 290 252 254 297 268 296 277 274 256 256 248 218 163 187 221 233 227 245 238 219 238 243 218 199 197 224 292 95 151 174 178 192 223 195 198 206 199 215 222 230 253 280 291 293 299 298 307
238 289 285 248 248 213 256 211 265 299 264 278 288 238 268 268 255 215 134 208 238 235 208 203 230 158 187 190 185 206 107 123 125 134 125 126 147 184 200 185 186 203 221 237 253 264 270 276 275 282 294 313 331 333
275 275 250 244 262 186 262 191 253 222 257 260 263 259 234 244 187 166 251 230 260 200 187 195 151 161 149 136 137 129 166 167 190 189 185 211 235 226 194 199 213 241 246 232 232 241 270 284 284 273 281 301 330 351
225 252 242 247 206 254 219 241 225 253 249 241 237 263 229 259 154 236 261 252 188 149 178 169 169 153 151 164 181 193 204 199 198 207 211 218 230 231 227 237 236 235 252 246 235 254 276 295 280 263 255 284 306 330
244 231 202 246 271 254 239 243 223 227 247 216 247 250 185 257 247 251 257 259 195 185 178 174 192 210 196 187 201 218 211 205 220 237 222 214 226 242 239 236 239 243 230 209 224 236 274 289 286 276 280 283 320 328
226 205 192 208 220 219 221 255 220 223 225 237 229 260 226 247 247 250 242 231 207 186 184 189 188 188 217 223 216 202 222 204 210 227 240 214 219 238 258 251 271 221 208 207 233 223 183 338 323 296 293 297 316 323
233 241 208 230 270 288 270 257 260 267 260 226 195 189 207 230 223 245 277 228 219 205 197 199 198 204 216 204 222 226 219 223 233 276 223 237 243 238 241 282 41 116 166 187 206 230 279 295 290 290 311 313 311 313
241 280 222 189 215 228 271 285 267 236 237 200 185 207 235 247 253 261 261 281 252 230 203 209 217 226 236 240 249 248 251 259 265 263 250 253 251 242 237 227 194 165 171 186 203 227 239 230 236 272 292 303 308 310
225 211 211 242 226 235 226 228 250 252 204 196 248 259 250 232 256 295 305 301 280 218 210 209 222 225 239 249 255 255 250 239 222 225 240 258 242 224 224 216 204 194 190 206 221 225 229 239 263 284 296 301 304 306
224 199 232 230 217 221 226 208 239 266 240 279 305 288 272 265 277 286 278 268 243 232 229 228 225 208 225 232 251 254 250 250 230 232 243 244 262 212 197 210 208 208 208 211 218 230 250 264 276 285 291 301 306 308
195 189 222 237 256 248 245 262 269 272 266 264 261 266 277 291 295 281 263 262 250 240 226 227 227 225 222 226 235 251 261 252 267 255 249 258 265 255 232 240 257 221 222 226 231 240 253 270 283 295 303 316 307 298
206 213 222 232 251 251 265 233 240 247 256 250 254 237 249 244 260 264 249 239 224 233 237 226 220 221 219 224 231 240 252 254 266 276 277 266 263 262 266 270 253 232 221 221 228 239 253 269 286 300 308 319 291 292
216 220 225 259 257 241 224 210 224 247 219 233 237 240 235 239 253 261 264 244 229 239 242 237 241 236 225 225 231 240 254 271 282 280 268 246 245 256 260 263 233 231 231 220 220 227 247 265 281 300 317 306 277 302